Location: ??????
(41.3747°N, 22.5491°E)
Time: 14:55:23
(UTC+00:00)

Cosmos 1933 Rocket - Pass Details

Date: 01 December 2020
Orbit: 606 x 631 km, 82.5° (Epoch: 20 January)

Event Time Altitude Azimuth Distance (km) Brightness Sun altitude
Rises 16:00:31 0° 359° (N) 2,933 6.8 -11.0°
Reaches altitude 10° 16:02:53 10° 8° (N) 2,020 5.9 -11.4°
Maximum altitude 16:07:05 39° 77° (ENE) 948 4.0 -12.2°
Drops below altitude 10° 16:11:15 10° 147° (SSE) 1,997 6.0 -12.9°
Sets 16:13:35 0° 155° (SSE) 2,896 6.9 -13.3°
